FW5423 Weather Reports


Display with metric or nautical units.
time (UTC)temp
F
wind
direction
speed
MPH
gust
MPH
rain 1hr
in
rain 24hr
in
rain mn
in
humidity
%
barometer
mb
20260831042523 55 84 1.0 15.0 0.35 1.34 1.23 98 1013.5
20260831042025 55 174 5.0 22.0 0.30 1.29 1.18 98 1014.2
20260831041528 55 245 8.0 22.0 0.24 1.24 1.12 98 1014.7
20260831041024 55 23 1.0 7.0 0.09 1.09 0.98 98 1013.8
20260831040523 55 359 2.0 5.0 0.06 1.05 0.94 98 1013.5
20260831040041 55 77 0.0 4.0 0.04 1.03 0.92 98 1013.5
20260831035523 55 39 1.0 6.0 0.02 1.02 0.91 98 1013.4
20260831035022 56 109 1.0 6.0 0.17 1.01 0.90 98 1013.5
20260831034531 56 114 1.0 6.0 0.20 1.00 0.89 98 1013.6
20260831034022 57 359 3.0 6.0 0.19 0.99 0.88 98 1013.8
20260831033522 58 359 2.0 6.0 0.19 1.00 0.88 98 1013.6
20260831032520 58 359 6.0 11.0 0.19 1.00 0.88 98 1013.4
20260831032022 58 359 7.0 11.0 0.19 1.00 0.88 98 1013.5
20260831031522 58 359 7.0 9.0 0.19 1.00 0.88 98 1013.4
20260831031023 58 359 4.0 8.0 0.19 1.00 0.88 98 1013.2
20260831030519 58 359 6.0 9.0 0.19 1.00 0.88 98 1013.3
20260831030037 58 359 6.0 13.0 0.19 1.00 0.88 98 1013.4
20260831025524 59 359 7.0 36.0 0.19 1.00 0.88 98 1013.5
20260831025020 59 359 12.0 36.0 0.17 0.98 0.87 98 1013.9
20260831024518 59 359 19.0 28.0 0.00 0.81 0.69 97 1014.3
20260831024019 59 359 2.0 9.0 0.00 0.81 0.69 97 1012.7
20260831023522 59 359 7.0 9.0 0.00 0.85 0.69 97 1013.1
20260831022524 59 20 5.0 8.0 0.00 0.85 0.69 97 1012.4
20260831022017 59 11 4.0 7.0 0.00 0.85 0.69 97 1012.2
20260831021518 59 29 2.0 8.0 0.00 0.85 0.69 97 1012.3
20260831021017 60 29 3.0 8.0 0.00 0.85 0.69 97 1012.3
20260831020517 60 35 3.0 6.0 0.00 0.85 0.69 97 1012.2
20260831020017 60 17 1.0 9.0 0.00 0.85 0.69 97 1012.4
20260831015516 59 18 6.0 9.0 0.00 0.85 0.69 97 1012.6
20260831015016 59 16 4.0 9.0 0.00 0.85 0.69 97 1012.6
20260831014516 59 15 5.0 13.0 0.00 0.85 0.69 97 1012.9
20260831014016 59 4 7.0 13.0 0.00 0.85 0.69 97 1012.9
20260831013517 59 15 8.0 12.0 0.00 0.87 0.69 98 1012.8
20260831012517 59 43 7.0 13.0 0.00 0.87 0.69 97 1012.7
20260831012017 59 16 6.0 14.0 0.00 0.87 0.69 97 1012.8
20260831011529 59 359 9.0 14.0 0.00 0.87 0.69 97 1012.6
20260831011018 59 359 9.0 16.0 0.00 0.87 0.69 97 1012.6
20260831010516 60 349 10.0 16.0 0.00 0.87 0.69 97 1012.8
20260831010016 60 21 11.0 16.0 0.00 0.87 0.69 97 1012.9
20260831005517 60 359 9.0 13.0 0.00 0.87 0.69 97 1012.9
20260831005016 60 359 8.0 15.0 0.00 0.87 0.69 97 1013.2
20260831004520 60 359 10.0 15.0 0.00 0.87 0.69 97 1013.0
20260831004015 60 4 8.0 13.0 0.00 0.87 0.69 97 1012.8
20260831003519 60 359 9.0 15.0 0.00 0.88 0.69 97 1012.9
20260831002515 60 354 10.0 15.0 0.00 0.88 0.69 97 1012.8
20260831002016 59 359 10.0 17.0 0.00 0.88 0.69 98 1013.0
20260831001515 59 359 11.0 18.0 0.00 0.88 0.69 97 1013.1
20260831001015 59 359 10.0 18.0 0.00 0.88 0.69 97 1013.0
20260831000516 59 18 11.0 16.0 0.00 0.88 0.69 97 1013.1
20260831000015 59 359 11.0 16.0 0.01 0.88 0.69 97 1013.0
20260830235515 59 359 11.0 16.0 0.01 0.88 0.69 97 1013.0
20260830235017 59 359 10.0 16.0 0.01 0.88 0.69 97 1012.9
20260830234514 59 359 10.0 15.0 0.01 0.88 0.69 98 1012.8
20260830234016 59 359 11.0 16.0 0.01 0.88 0.69 98 1012.7
20260830233518 59 359 11.0 16.0 0.01 0.91 0.69 98 1012.8
20260830232515 59 359 10.0 15.0 0.01 0.91 0.69 97 1012.7
20260830232015 59 359 9.0 15.0 0.01 0.91 0.69 98 1012.4
20260830231514 59 359 10.0 15.0 0.01 0.91 0.69 98 1012.1
20260830231012 59 359 10.0 15.0 0.01 0.91 0.69 98 1012.5
20260830230512 59 354 11.0 22.0 0.01 0.91 0.69 98 1012.6
20260830230014 58 359 15.0 22.0 0.01 0.91 0.69 98 1012.8
20260830225513 59 359 12.0 17.0 0.00 0.91 0.69 98 1012.8
20260830225017 59 359 9.0 16.0 0.00 0.91 0.69 98 1012.4
20260830224512 58 4 9.0 17.0 0.00 0.91 0.69 98 1012.4
20260830224012 58 348 12.0 18.0 0.00 0.91 0.69 98 1012.4
20260830223511 58 359 12.0 19.0 0.00 0.95 0.69 98 1012.4
20260830222514 59 359 12.0 17.0 0.00 0.95 0.69 98 1012.4
20260830222014 59 359 12.0 17.0 0.00 0.95 0.69 98 1012.6
20260830221514 59 359 12.0 16.0 0.00 0.95 0.69 98 1012.4
20260830221014 59 348 11.0 16.0 0.00 0.95 0.69 98 1012.2
20260830220514 58 348 13.0 16.0 0.00 0.95 0.69 98 1012.3
20260830220025 58 354 11.0 17.0 0.00 0.95 0.69 98 1012.1
20260830215515 59 359 13.0 17.0 0.00 0.95 0.69 98 1012.4
20260830215013 59 345 9.0 15.0 0.00 0.95 0.69 98 1012.1
20260830214517 58 4 11.0 19.0 0.00 0.95 0.69 98 1012.0
20260830214013 58 359 12.0 19.0 0.00 0.95 0.69 98 1011.8
20260830213513 59 359 12.0 16.0 0.00 0.95 0.69 98 1011.9
20260830212509 59 359 11.0 14.0 0.00 0.95 0.69 98 1012.0
20260830212009 59 354 9.0 11.0 0.00 0.95 0.69 98 1012.0
20260830211509 59 359 6.0 8.0 0.00 0.95 0.69 99 1011.8
20260830211007 59 354 5.0 10.0 0.00 0.95 0.69 99 1011.5
20260830210507 59 359 7.0 10.0 0.00 0.95 0.69 98 1011.7
20260830210017 59 359 7.0 12.0 0.00 0.95 0.69 98 1011.7
20260830205509 58 8 8.0 13.0 0.00 0.95 0.69 99 1011.8
20260830205007 58 359 9.0 15.0 0.00 0.95 0.69 99 1011.6
20260830204504 58 349 12.0 17.0 0.00 0.95 0.69 98 1011.7
20260830204005 58 359 12.0 18.0 0.00 0.95 0.69 99 1011.8
20260830203505 57 345 13.0 18.0 0.00 0.95 0.69 98 1012.0
20260830202508 57 354 11.0 13.0 0.00 0.95 0.69 99 1012.1
20260830202008 57 354 9.0 13.0 0.00 0.95 0.69 99 1012.2
20260830201509 57 8 9.0 12.0 0.01 0.95 0.69 99 1012.2
20260830201008 57 35 7.0 11.0 0.01 0.95 0.69 99 1012.3
20260830200510 57 9 5.0 8.0 0.02 0.95 0.69 98 1012.4
20260830200007 58 51 0.0 3.0 0.03 0.95 0.69 98 1012.4
20260830195507 58 50 0.0 5.0 0.04 0.95 0.69 99 1012.4
20260830195008 58 28 0.0 7.0 0.06 0.95 0.69 99 1012.5
20260830194510 58 45 4.0 7.0 0.08 0.95 0.69 99 1012.7
20260830194011 58 74 4.0 5.0 0.09 0.95 0.69 99 1012.6
20260830193506 58 194 0.0 2.0 0.11 0.95 0.69 98 1012.4
20260830192506 58 190 0.0 2.0 0.14 0.95 0.69 99 1011.8
20260830192006 58 190 0.0 2.0 0.16 0.95 0.69 99 1011.7
20260830191523 58 193 0.0 2.0 0.17 0.94 0.68 98 1011.7
20260830191004 58 189 0.0 5.0 0.18 0.94 0.68 99 1012.0
20260830190504 58 190 2.0 6.0 0.17 0.94 0.67 98 1012.7
20260830190004 58 151 2.0 11.0 0.17 0.93 0.66 98 1012.7
20260830185503 58 359 3.0 11.0 0.17 0.91 0.65 98 1013.4
20260830185006 58 359 4.0 9.0 0.17 0.90 0.63 98 1013.9
20260830184503 58 239 4.0 17.0 0.15 0.88 0.61 98 1014.2
20260830184002 58 359 8.0 17.0 0.14 0.87 0.60 99 1014.1
20260830183501 57 359 6.0 13.0 0.13 0.85 0.57 98 1014.1
20260830182600 57 243 5.0 11.0 0.12 0.83 0.56 99 1014.1
20260830182059 58 359 5.0 11.0 0.10 0.80 0.54 99 1014.1
20260830181600 58 359 6.0 11.0 0.09 0.79 0.52 99 1014.0
20260830181101 57 255 4.0 10.0 0.09 0.77 0.50 98 1013.8
20260830180601 56 216 4.0 8.0 0.10 0.76 0.50 99 1013.5
20260830180058 56 15 3.0 8.0 0.10 0.76 0.49 98 1013.2
20260830175559 56 21 6.0 8.0 0.12 0.75 0.48 99 1013.0
20260830175058 56 74 2.0 6.0 0.13 0.74 0.47 98 1012.7
20260830174600 56 77 1.0 6.0 0.13 0.73 0.46 98 1012.4
20260830174058 56 101 1.0 8.0 0.13 0.73 0.46 99 1012.2
20260830173559 56 73 4.0 10.0 0.13 1.17 0.46 99 1012.4
20260830173158 55 77 2.0 11.0 0.12 1.17 0.45 98 1013.6
20260830172601 55 47 7.0 11.0 0.12 1.17 0.45 98 1014.1
20260830172058 55 346 9.0 11.0 0.18 1.14 0.43 98 1014.6
20260830171557 57 4 0.0 4.0 0.24 1.13 0.43 99 1014.5
20260830171056 57 227 0.0 5.0 0.28 1.13 0.43 98 1014.4
20260830170555 56 214 0.0 5.0 0.25 1.12 0.40 99 1014.3
20260830170056 56 190 2.0 4.0 0.24 1.10 0.39 98 1014.3
20260830165555 56 127 1.0 3.0 0.23 1.09 0.37 99 1013.6
20260830165057 56 147 0.0 0.0 0.22 1.08 0.36 98 1013.9
20260830164555 56 150 0.0 2.0 0.20 1.06 0.34 98 1013.8
20260830164055 56 359 0.0 2.0 0.20 1.06 0.34 99 1013.5
20260830163555 55 359 0.0 4.0 0.19 1.05 0.33 98 1013.5
20260830163155 55 146 1.0 5.0 0.19 1.05 0.33 98 1014.3
20260830162556 55 213 0.0 5.0 0.19 1.05 0.33 98 1014.4
20260830162058 54 359 2.0 6.0 0.18 1.04 0.32 99 1014.2
20260830161609 54 104 2.0 6.0 0.09 0.94 0.23 99 1014.2
20260830161056 55 18 1.0 6.0 0.02 0.87 0.16 98 1014.1
20260830160556 55 150 0.0 6.0 0.01 0.87 0.15 98 1013.6
20260830160057 55 122 3.0 7.0 0.00 0.86 0.14 98 1013.8
20260830155555 55 233 3.0 7.0 0.00 0.86 0.14 98 1013.6
20260830155057 55 233 2.0 7.0 0.00 0.86 0.14 98 1013.4
20260830154604 55 168 3.0 7.0 0.00 0.86 0.14 98 1014.1
20260830154054 55 260 2.0 5.0 0.00 0.86 0.14 98 1013.6
20260830153555 55 359 2.0 5.0 0.00 0.86 0.14 98 1013.4
20260830153156 55 185 1.0 4.0 0.01 0.86 0.14 98 1013.7
20260830152557 55 177 1.0 4.0 0.03 0.86 0.14 98 1013.6
20260830152057 55 153 2.0 4.0 0.09 0.86 0.14 99 1013.7
20260830151558 55 174 2.0 9.0 0.09 0.86 0.14 99 1013.6
20260830151056 55 189 1.0 5.0 0.09 0.86 0.14 99 1013.5
20260830150557 55 142 1.0 4.0 0.09 0.86 0.14 98 1013.6
20260830150057 55 142 1.0 4.0 0.09 0.86 0.14 98 1013.7
20260830145556 55 359 1.0 4.0 0.09 0.86 0.14 99 1013.6
20260830145059 55 170 1.0 5.0 0.09 0.86 0.14 98 1013.5
20260830144607 55 359 2.0 5.0 0.09 0.86 0.14 98 1013.6
20260830144056 55 69 2.0 6.0 0.09 0.86 0.14 98 1014.6
20260830143559 55 191 2.0 13.0 0.09 0.86 0.14 98 1014.2
20260830143156 55 185 1.0 13.0 0.09 0.86 0.14 98 1013.2
20260830142552 55 145 2.0 13.0 0.09 0.85 0.13 98 1013.5
20260830142051 55 359 9.0 14.0 0.02 0.78 0.06 98 1016.5
20260830141550 55 359 2.0 6.0 0.02 0.77 0.06 98 1013.5
20260830141049 55 183 1.0 5.0 0.02 0.77 0.06 98 1013.6
20260830140549 56 154 1.0 6.0 0.02 0.77 0.06 98 1013.6
20260830140059 56 177 2.0 6.0 0.02 0.77 0.06 98 1013.5
20260830135552 56 143 1.0 6.0 0.02 0.77 0.06 99 1013.6
20260830135049 56 193 1.0 3.0 0.02 0.77 0.06 99 1013.8
20260830134548 57 201 0.0 7.0 0.02 0.77 0.06 98 1013.7
20260830134047 56 215 3.0 7.0 0.02 0.77 0.06 99 1013.7
20260830133546 56 50 1.0 6.0 0.02 0.77 0.06 99 1013.6
20260830133145 56 359 1.0 7.0 0.02 0.77 0.06 98 1013.3
20260830132548 56 191 1.0 7.0 0.01 0.76 0.05 98 1013.1
20260830132045 55 143 0.0 2.0 0.00 0.76 0.04 98 1014.2
20260830131553 55 144 0.0 3.0 0.00 0.76 0.04 98 1014.0
20260830131044 55 143 0.0 3.0 0.00 0.76 0.04 98 1014.0
20260830130544 55 142 1.0 7.0 0.00 0.76 0.04 98 1013.6
20260830130057 55 189 2.0 7.0 0.00 0.76 0.04 98 1013.9
20260830125542 55 359 1.0 7.0 0.01 0.76 0.04 98 1013.5
20260830125042 55 189 1.0 3.0 0.01 0.76 0.04 98 1013.5
20260830124542 55 191 0.0 3.0 0.01 0.76 0.04 98 1013.5
20260830124041 55 359 0.0 3.0 0.01 0.76 0.04 98 1013.6
20260830123540 55 194 1.0 3.0 0.01 0.76 0.04 98 1013.3
20260830123139 56 189 1.0 5.0 0.01 0.76 0.04 98 1013.1
20260830122541 56 193 0.0 5.0 0.01 0.76 0.04 98 1013.1
20260830122041 55 146 0.0 5.0 0.01 0.76 0.04 98 1013.1
20260830121541 56 141 1.0 5.0 0.01 0.76 0.04 98 1013.1
20260830121040 56 143 0.0 3.0 0.01 0.76 0.04 98 1013.0
20260830120540 55 140 0.0 3.0 0.03 0.76 0.04 98 1012.9
20260830120058 55 142 0.0 5.0 0.04 0.76 0.04 98 1012.7
20260830115539 55 144 2.0 5.0 0.04 0.76 0.04 98 1012.5
20260830115036 55 159 0.0 4.0 0.03 0.75 0.03 98 1012.3
20260830114536 55 157 1.0 5.0 0.03 0.75 0.03 98 1012.1
20260830114036 55 50 1.0 4.0 0.03 0.75 0.03 98 1012.1
20260830113537 55 172 1.0 6.0 0.03 0.75 0.03 98 1012.4
20260830113135 55 162 2.0 7.0 0.03 0.75 0.03 98 1011.9
20260830112536 55 74 2.0 7.0 0.03 0.75 0.03 98 1012.0
20260830112037 55 70 3.0 7.0 0.03 0.75 0.03 98 1012.4
20260830111539 55 168 0.0 6.0 0.03 0.75 0.03 98 1012.3
20260830111034 55 45 3.0 14.0 0.03 0.75 0.03 98 1012.2
20260830110534 55 359 1.0 15.0 0.03 0.75 0.03 98 1012.0
20260830110035 55 359 2.0 8.0 0.00 0.72 0.00 98 1013.0
20260830105531 55 359 1.0 5.0 0.00 0.72 0.00 98 1012.5
20260830105031 55 175 1.0 4.0 0.00 0.72 0.00 98 1012.3
20260830104529 55 177 1.0 6.0 0.00 0.72 0.00 98 1012.2
20260830104029 55 177 2.0 6.0 0.00 0.72 0.00 98 1011.7
20260830103528 55 79 1.0 6.0 0.00 0.72 0.72 98 1011.9
20260830103130 55 50 1.0 5.0 0.00 0.72 0.72 98 1011.7
20260830102524 55 94 0.0 6.0 0.00 0.72 0.72 98 1011.7
20260830102032 55 92 2.0 5.0 0.00 0.72 0.72 98 1011.8
20260830101524 55 165 2.0 5.0 0.00 0.72 0.72 98 1011.8
20260830101024 55 91 0.0 3.0 0.00 0.72 0.72 98 1011.7
20260830100525 55 85 0.0 7.0 0.00 0.72 0.72 98 1011.6
20260830100030 54 4 0.0 7.0 0.00 0.72 0.72 98 1011.4
20260830095523 55 171 3.0 7.0 0.00 0.72 0.72 98 1011.2
20260830095023 55 172 2.0 6.0 0.01 0.72 0.72 98 1011.1
20260830094533 55 150 1.0 7.0 0.01 0.72 0.72 98 1011.7
20260830094024 54 147 1.0 7.0 0.01 0.72 0.72 98 1011.8
20260830093521 54 112 1.0 6.0 0.01 0.72 0.72 98 1011.5
20260830093124 55 102 0.0 7.0 0.01 0.72 0.72 98 1011.4
20260830092522 55 100 1.0 7.0 0.01 0.72 0.72 98 1011.5
20260830092021 55 142 3.0 7.0 0.01 0.72 0.72 98 1011.4
20260830091525 55 185 2.0 5.0 0.01 0.72 0.72 98 1011.3
20260830091020 55 78 1.0 4.0 0.02 0.72 0.72 98 1011.1
20260830090519 55 43 0.0 4.0 0.03 0.72 0.72 98 1011.3
20260830090020 55 115 2.0 7.0 0.09 0.72 0.72 98 1011.3
20260830085521 55 142 2.0 7.0 0.09 0.72 0.72 98 1011.1
20260830085025 55 147 2.0 7.0 0.09 0.72 0.72 98 1011.0
20260830084518 55 203 2.0 6.0 0.08 0.71 0.71 98 1011.1
20260830084019 55 359 1.0 7.0 0.08 0.71 0.71 98 1010.8
20260830083517 55 216 2.0 7.0 0.08 0.71 0.71 98 1010.6
20260830083117 55 148 2.0 4.0 0.08 0.71 0.71 98 1010.6
20260830082513 55 179 1.0 5.0 0.08 0.71 0.71 98 1010.7
20260830082013 55 181 1.0 5.0 0.08 0.71 0.71 98 1010.5
20260830081530 55 359 1.0 8.0 0.09 0.71 0.71 98 1010.5
20260830081013 55 359 4.0 8.0 0.09 0.71 0.71 98 1010.5
20260830080516 55 181 3.0 9.0 0.08 0.70 0.70 98 1010.2
20260830080013 55 125 3.0 8.0 0.03 0.65 0.65 98 1010.0
20260830075513 55 119 1.0 7.0 0.01 0.63 0.63 98 1011.0
20260830075012 55 192 1.0 7.0 0.01 0.63 0.63 98 1010.1
20260830074522 55 114 3.0 7.0 0.01 0.63 0.63 98 1010.2
20260830074010 55 359 1.0 6.0 0.01 0.63 0.63 98 1010.2
20260830073510 55 359 2.0 8.0 0.01 0.63 0.63 98 1010.0
20260830073111 55 181 2.0 10.0 0.01 0.63 0.63 98 1010.1
20260830072512 55 359 5.0 10.0 0.01 0.63 0.63 98 1010.0
20260830072017 55 172 2.0 7.0 0.01 0.63 0.63 98 1010.7
20260830071510 55 184 2.0 8.0 0.01 0.63 0.63 98 1010.8
20260830071011 55 359 3.0 12.0 0.00 0.62 0.62 98 1010.6
20260830070510 55 178 5.0 12.0 0.00 0.62 0.62 98 1010.6
20260830070009 55 177 5.0 9.0 0.00 0.62 0.62 98 1010.7
20260830065508 55 359 3.0 5.0 0.00 0.62 0.62 98 1010.9
20260830065007 56 179 1.0 8.0 0.00 0.62 0.62 98 1010.4
20260830064508 56 139 4.0 8.0 0.00 0.62 0.62 98 1010.3
20260830064006 56 359 1.0 7.0 0.00 0.62 0.62 98 1010.1
20260830063506 56 181 4.0 8.0 0.01 0.62 0.62 98 1009.9
20260830063106 56 191 4.0 10.0 0.01 0.62 0.62 98 1010.0
20260830062507 56 359 3.0 10.0 0.01 0.62 0.62 98 1010.1
20260830062006 56 359 4.0 7.0 0.01 0.62 0.62 98 1010.1
20260830061509 56 359 2.0 7.0 0.01 0.62 0.62 98 1010.3
20260830061004 56 237 1.0 5.0 0.01 0.62 0.62 98 1010.3
20260830060504 56 359 2.0 5.0 0.01 0.62 0.62 98 1010.1
20260830060008 56 359 0.0 5.0 0.01 0.62 0.62 98 1010.1
20260830055504 56 247 3.0 5.0 0.02 0.62 0.62 98 1010.0
20260830055003 56 253 2.0 5.0 0.02 0.62 0.62 98 1010.0
20260830054503 56 147 0.0 9.0 0.02 0.62 0.62 98 1010.1
20260830054002 56 176 1.0 12.0 0.02 0.62 0.62 98 1010.0
20260830053501 56 177 5.0 12.0 0.01 0.61 0.61 98 1010.0
20260830053101 56 187 2.0 9.0 0.01 0.61 0.61 98 1009.9
20260830052559 56 359 2.0 9.0 0.01 0.61 0.61 98 1009.9
20260830052101 56 239 3.0 9.0 0.01 0.61 0.61 98 1009.8
20260830051602 56 359 3.0 11.0 0.01 0.61 0.61 98 1009.8
20260830051057 56 359 4.0 7.0 0.01 0.61 0.61 98 1009.9
20260830050557 56 359 0.0 6.0 0.01 0.61 0.61 98 1009.9
20260830050056 56 359 2.0 6.0 0.01 0.61 0.61 98 1009.9
20260830045555 57 184 1.0 4.0 0.01 0.61 0.61 98 1010.0
20260830045055 57 225 1.0 4.0 0.00 0.61 0.61 98 1010.1
20260830044607 57 225 0.0 4.0 0.00 0.61 0.61 98 1010.1
20260830044055 57 359 1.0 11.0 0.00 0.61 0.61 98 1010.0
20260830043555 57 220 2.0 7.0 0.00 0.61 0.61 98 1010.0
20260830043055 57 359 2.0 8.0 0.00 0.61 0.61 98 1010.1